Orbital Elements at Epoch 2459200.5 (2020-Dec-17.0) TDB
Reference: JPL 22 (heliocentric ecliptic J2000)
Element | Value | Uncertainty (1-sigma) | Units |
e | .1277524354935314 | 3.1338e-08 | |
a | 2.380493517058899 | 8.2903e-09 | au |
q | 2.076379672578062 | 7.7586e-08 | au |
i | 3.930154009312793 | 3.256e-06 | deg |
node | 274.2097177518252 | 5.4976e-05 | deg |
peri | 149.5432196258549 | 5.7332e-05 | deg |
M | 331.5724726383058 | 1.5834e-05 | deg |
tp | 2459306.434035527919 (2021-Apr-01.93403553) | 5.9136e-05 | TDB |
period | 1341.525497621687 3.67 | 7.008e-06 1.919e-08 | d yr |
n | .268351217057166 | 1.4018e-09 | deg/d |
Q | 2.684607361539735 | 9.3494e-09 | au |
|
| | Orbit Determination Parameters
Additional Information
|